Home > Weather > Schärding > Past weeks

Flag for Austria Past Weather in Schärding, Upper Austria, Austria — Yesterday and Last 2 Weeks

Now
53 °F

Cool.


Feels Like: 53 °F
Forecast: 56 / 68 °F
Wind: 1 mph from South

Location: Rohrbach

Current Time: Jun 1, 2016 at 5:44:01 AM

Latest Report: Jun 1, 2016 at 5:00 AM


Visibility: N/A

Pressure: 29.87 "Hg

Humidity: 99%

Dew Point: 52 °F

Location of SchärdingLocation

Past Weather in Schärding — Graph

°F

Schärding Temperature Yesterday

Maximum temperature yesterday: 60 °F (at 12:00 AM)
Minimum temperature yesterday: 53 °F (at 6:00 PM)
Average temperature yesterday: 55 °F

High & Low Weather Summary for the Past Weeks

 TemperatureHumidityPressure
High83 °F (May 22, 4:00 PM)100% (May 20, 6:00 AM)30.21 "Hg (May 20, 6:00 AM)
Low40 °F (May 18, 6:00 AM)25% (May 22, 4:00 PM)29.56 "Hg (May 29, 8:00 PM)
Average57 °F76%29.91 "Hg
* Reported May 17 4:00 AM — Jun 1 4:00 AM, Schärding, Weather by CustomWeather, © 2016

Note: Actual official high and low records may vary slightly from our data, if they occured in-between our weather recording intervals... More about our weather records

Advertising

Schärding Weather History for the Previous 24 Hours

Scroll right to see more
 ConditionsComfort  
Time TempWeatherWind HumidityBarometerVisibility
4:00 AM
Wed, Jun 1
53 °FFog.1 mph98%29.88 "HgN/A
3:00 AM53 °FFog.1 mph97%29.89 "HgN/A
2:00 AM53 °FCool.1 mph98%29.90 "HgN/A
1:00 AM53 °FSprinkles. Overcast.1 mph99%29.90 "HgN/A
12:00 AM53 °FCool.1 mph98%29.91 "HgN/A
11:00 PM
Tue, May 31
53 °FCool.2 mph99%29.91 "HgN/A
10:00 PM54 °FSprinkles. Overcast.1 mph99%29.90 "HgN/A
9:00 PMN/APassing clouds.12 mphN/AN/A3 mi
8:00 PM53 °FCool.1 mph99%29.89 "HgN/A
7:00 PM53 °FFog.No wind96%29.89 "HgN/A
6:00 PM53 °FFog.1 mph97%29.89 "HgN/A
3:00 PM54 °FFog.3 mph95%29.88 "HgN/A
2:00 PM55 °FCool.2 mph96%29.88 "HgN/A
1:00 PM55 °FFog.3 mph94%29.87 "HgN/A
12:00 PM55 °FFog.5 mph95%29.86 "HgN/A
11:00 AM56 °FCool.3 mph94%29.85 "HgN/A
10:00 AM55 °FFog.5 mph96%29.85 "HgN/A
9:00 AM54 °FCool.3 mph97%29.84 "HgN/A
8:00 AM54 °FCool.2 mph98%29.83 "HgN/A
7:00 AM54 °FFog.2 mph98%29.83 "HgN/A
6:00 AM54 °FFog.1 mph98%29.83 "HgN/A
5:00 AM55 °FCool.2 mph97%29.83 "HgN/A
Weather by CustomWeather, © 2016

See weather overviewHow to use our weather pages